Flag for Germany

Past Weather in Neustadt an der Weinstraße, Rhineland-Palatinate, Germany — Yesterday and Last 2 Weeks

Now
61 °F

Passing clouds.


Feels Like: 61 °F
Forecast: 66 / 46 °F
Wind: 2 mph from Northwest

Location: Mannheim City

Current Time: Oct 22, 2019 at 7:06:18 pm

Latest Report: Oct 22, 2019 at 6:20 pm


Visibility: N/A

Pressure: 30.21 "Hg

Humidity: 72%

Dew Point: 52 °F

Location of Neustadt an der WeinstraßeLocation

Past Weather in Neustadt an der Weinstraße — Graph

°F

Neustadt an der Weinstraße Temperature Yesterday

Maximum temperature yesterday: 64 °F (at 12:20 pm)
Minimum temperature yesterday: 57 °F (at 10:20 pm)
Average temperature yesterday: 60 °F

High & Low Weather Summary for the Past Weeks

 TemperatureHumidityPressure
High77 °F (Oct 13, 2:20 pm)100% (Oct 8, 3:50 pm)30.27 "Hg (Oct 8, 3:50 pm)
Low50 °F (Oct 10, 8:20 am)44% (Oct 14, 4:50 pm)29.71 "Hg (Oct 15, 7:50 am)
Average60 °F79%29.93 "Hg
* Reported Oct 7 5:20 pm — Oct 22 5:20 pm, Neustadt an der Weinstraße. Weather by CustomWeather, © 2019

Note: Actual official high and low records may vary slightly from our data, if they occured in-between our weather recording intervals... More about our weather records

Advertising

Neustadt an der Weinstraße Weather History for the Previous 24 Hours

Scroll right to see more
 ConditionsComfort  
Time TempWeatherWind HumidityBarometerVisibility
5:20 pm
Tue, Oct 22
63 °FOvercast.3 mph68%30.21 "HgN/A
4:50 pm63 °FOvercast.2 mph68%30.21 "HgN/A
4:20 pm63 °FOvercast.3 mph68%30.21 "HgN/A
3:50 pm63 °FOvercast.6 mph68%30.21 "HgN/A
3:20 pm63 °FPartly sunny.6 mph64%30.21 "HgN/A
2:50 pm63 °FPartly sunny.3 mph68%30.24 "HgN/A
2:20 pm63 °FSunny.3 mph68%30.24 "Hg10 mi
1:50 pm61 °FSunny.2 mph72%30.24 "Hg10 mi
1:20 pm61 °FSunny.3 mph68%30.24 "Hg10 mi
12:50 pm61 °FPassing clouds.6 mph68%30.27 "HgN/A
12:20 pm59 °FScattered clouds.6 mph77%30.27 "HgN/A
11:50 am57 °FPartly sunny.7 mph77%30.27 "HgN/A
11:20 am59 °FPartly sunny.5 mph77%30.27 "HgN/A
10:50 am57 °FPartly sunny.3 mph82%30.27 "HgN/A
10:20 am57 °FMostly cloudy.7 mph82%30.27 "HgN/A
9:50 am55 °FBroken clouds.3 mph88%30.27 "HgN/A
9:20 am54 °FPassing clouds.6 mph94%30.24 "HgN/A
8:50 am54 °FPassing clouds.1 mph88%30.24 "HgN/A
8:20 am54 °FPassing clouds.3 mph94%30.21 "HgN/A
7:50 am54 °FPassing clouds.No wind88%30.21 "HgN/A
7:20 am54 °FPassing clouds.1 mph94%30.21 "HgN/A
6:50 am55 °FPassing clouds.2 mph88%30.21 "HgN/A
6:20 am54 °FPassing clouds.3 mph94%30.21 "HgN/A
5:50 am54 °FPassing clouds.2 mph94%30.21 "HgN/A
5:20 am55 °FPartly cloudy.1 mph88%30.24 "HgN/A
2:50 am55 °FOvercast.No wind94%30.21 "HgN/A
11:50 pm
Mon, Oct 21
57 °FOvercast.2 mph94%30.21 "HgN/A
11:20 pm57 °FPassing clouds.1 mph94%30.21 "HgN/A
10:50 pm57 °FOvercast.No wind94%30.21 "HgN/A
10:20 pm57 °FPassing clouds.3 mph94%30.21 "HgN/A
9:50 pm59 °FClear.3 mph88%30.18 "Hg10 mi
9:20 pm59 °FClear.3 mph88%30.18 "Hg10 mi
8:50 pm59 °FClear.3 mph88%30.18 "Hg10 mi
8:20 pm59 °FPassing clouds.6 mph88%30.18 "HgN/A
7:50 pm59 °FLight rain. Passing clouds.3 mph88%30.18 "HgN/A
7:20 pm61 °FClear.5 mph83%30.15 "Hg10 mi
Weather by CustomWeather, © 2019

See weather overview